Location: Libas
(9.8833°N, 125.9833°E)
Time: 23:45:04
(UTC+00:00)

Envisat - Visible Passes

Search period start: 09 May 2021 00:00
Search period end: 19 May 2021 00:00
Orbit: 764 x 766 km, 98.1° (Epoch: 09 May)

Date Brightness Start Highest point End Pass type
(mag) Time Alt. Az. Time Alt. Az. Time Alt. Az.
09 May 4.3 20:21:29 10° NNE 20:26:14 41° E 20:30:59 10° S visible
10 May 5.8 19:46:44 10° ENE 19:49:26 14° E 19:52:08 10° SE visible
11 May 3.1 20:46:29 10° NNE 20:51:33 86° E 20:56:38 10° S visible
12 May 4.9 20:10:24 10° NE 20:14:48 30° E 20:19:11 10° SSE visible
13 May 6.1 19:37:40 10° E 19:37:59 10° E 19:38:19 10° ESE visible
14 May 3.5 20:35:07 10° NNE 20:40:07 63° ESE 20:45:08 10° S visible
15 May 5.4 19:59:29 10° NE 20:03:21 22° E 20:07:13 10° SSE visible
17 May 4.1 20:23:51 10° NNE 20:28:41 45° E 20:33:31 10° S visible
18 May 5.7 19:48:49 10° ENE 19:51:54 16° E 19:54:57 10° SE visible
